Simultaneous Nadir Overpasses (SNOs) Predictions

Prediction of SNOs between GOES-16 and TERRA Satellite Orbit:

Table of predicted SNOs for the next 14.0 days since TLE Epoch: 12/19/2020
Index Date Time (GOES-16) GOES-16 Lat,Lon TERRA Lat,Lon Distance(km) Time Diff (sec)
1 12/20/2020 15:26:13 -0.01, -75.18 -0.31, -73.77 160.09 80
2 12/21/2020 03:47:36 0.01, -75.16 -0.80, -78.96 432.00 80
3 12/22/2020 15:14:01 -0.01, -75.20 -0.91, -70.81 498.14 80
4 12/23/2020 03:35:25 0.01, -75.18 -0.14, -76.01 93.93 80
5 12/25/2020 03:20:33 0.01, -75.21 0.46, -73.05 244.61 80
6 12/25/2020 15:41:49 -0.01, -75.23 0.60, -78.22 338.97 80
7 12/27/2020 15:32:17 -0.01, -75.26 -0.01, -75.26 0.45 80
8 12/29/2020 15:20:05 -0.01, -75.29 -0.62, -72.30 339.57 80
9 12/30/2020 03:41:29 0.01, -75.28 -0.48, -77.49 251.90 80
10 01/01/2021 03:26:38 0.01, -75.31 0.19, -74.55 87.86 80
11 01/01/2021 15:47:53 -0.01, -75.34 0.93, -79.70 495.78 80
